This demonstration page uses our WeatherBlox Daily Observations layout. Learn more.

40.92945, -100.16068

Hourly Observations for July 16, 2020

Temp ( °F °C ) Dew Point ( °F °C ) Humidity (%) Winds ( mph kmh ) Pressure ( in mb ) Visibility ( mi km ) Precip ( " mm )
12:15 am 00:15 Clear 63 17.3 62 16.5 95 95 ENE 3 6 30 1016 10 16.0934 0 0
12:35 am 00:35 Clear with Mist and Fog 64 17.5 62 16.5 94 94 E 5 7 29.98 1015 5 8.0467 0 0
12:55 am 00:55 Clear with Mist and Fog 64 17.6 62 16.4 93 93 ESE 3 6 29.98 1015 5 8.0467 0 0
1:15 am 01:15 Clear 65 18.5 62 16.9 90 90 SE 5 7 29.98 1015 7 11.26538 0 0
1:35 am 01:35 Clear 63 17.2 61 16.3 94 94 SE 7 11 30.01 1016 10 16.0934 0 0
1:55 am 01:55 Clear with Mist and Fog 66 19 63 17.3 90 90 SE 7 11 29.99 1016 5 8.0467 0 0
2:15 am 02:15 Clear with Mist and Fog 66 19.1 64 17.6 91 91 SE 6 9 29.99 1016 5 8.0467 0 0
2:35 am 02:35 Clear with Mist and Fog 67 19.4 65 18.2 93 93 SE 6 9 29.99 1015 4 6.43736 0 0
2:55 am 02:55 Clear with Mist and Fog 67 19.2 65 18.4 95 95 SSE 7 11 29.99 1016 5 8.0467 0 0
3:15 am 03:15 Mostly Cloudy with Mist and Fog 67 19.7 66 18.8 95 95 SSE 8 13 29.99 1016 5 8.0467 0 0
3:35 am 03:35 Mostly Cloudy 68 20 66 19 94 94 SE 7 11 29.98 1015 7 11.26538 0 0
3:55 am 03:55 Partly Cloudy 68 19.9 66 19 95 95 SE 7 11 29.97 1015 7 11.26538 0 0
4:15 am 04:15 Mostly Cloudy with Mist and Fog 68 19.8 66 19.1 96 96 SSE 8 13 29.97 1015 5 8.0467 0 0
4:35 am 04:35 Cloudy with Mist and Fog 68 19.9 66 19.1 95 95 SSE 9 15 29.98 1015 5 8.0467 0 0
4:55 am 04:55 Cloudy with Mist and Fog 67 19.6 66 19 96 96 SSE 7 11 29.99 1015 5 8.0467 0 0
5:15 am 05:15 Mostly Cloudy with Mist and Fog 67 19.3 66 18.7 96 96 SSE 6 9 29.99 1016 5 8.0467 0 0
5:35 am 05:35 Partly Cloudy with Mist and Fog 66 19 65 18.5 97 97 SSE 6 9 30 1016 4 6.43736 0 0
5:55 am 05:55 Partly Cloudy with Mist and Fog 65 18.6 65 18.2 98 98 SSE 5 7 30 1016 4 6.43736 0 0
6:15 am 06:15 Mostly Cloudy with Mist and Fog 66 19 65 18.5 97 97 SSE 6 9 30 1016 5 8.0467 0 0
6:35 am 06:35 Cloudy with Mist and Fog 67 19.3 65 18.6 96 96 SSE 7 11 30 1016 4 6.43736 0 0
6:55 am 06:55 Partly Cloudy with Mist and Fog 67 19.2 65 18.6 96 96 SSE 8 13 30 1016 4 6.43736 0 0
7:15 am 07:15 Mostly Cloudy with Mist and Fog 67 19.5 66 19 97 97 S 6 9 30 1016 4 6.43736 0 0
7:35 am 07:35 Cloudy with Mist and Fog 68 20 66 19.1 95 95 S 12 19 29.99 1016 3 4.82802 0 0
7:55 am 07:55 Cloudy with Mist and Fog 68 20 67 19.3 96 96 S 10 17 30 1016 2.5 4.02335 0 0
8:15 am 08:15 Cloudy with Mist and Fog 69 20.5 67 19.6 95 95 S 10 17 29.99 1015 3 4.82802 0 0
8:35 am 08:35 Cloudy with Mist and Fog 69 20.7 67 19.6 93 93 S 10 17 29.99 1015 3 4.82802 0 0
8:55 am 08:55 Mostly Cloudy with Mist and Fog 71 21.4 68 19.9 91 91 SSE 8 13 29.98 1015 4 6.43736 0 0
9:15 am 09:15 Partly Cloudy with Mist and Fog 72 22.4 68 20 86 86 SSE 10 17 29.96 1015 3 4.82802 0 0
9:35 am 09:35 Mostly Cloudy with Haze 73 22.7 68 20 85 85 S 12 19 29.96 1015 3 4.82802 0 0
9:55 am 09:55 Cloudy 72 22.4 68 19.8 85 85 SSE 10 17 29.96 1015 7 11.26538 0 0
10:15 am 10:15 Cloudy with Haze 73 22.5 68 19.9 85 85 S 9 15 29.96 1015 5 8.0467 0 0
10:35 am 10:35 Cloudy with Haze 75 23.9 67 19.6 77 77 S 10 17 29.95 1014 4 6.43736 0 0
10:55 am 10:55 Mostly Cloudy 76 24.6 68 20 76 76 SSE 10 17 29.93 1014 7 11.26538 0 0
11:15 am 11:15 Mostly Cloudy with Haze 77 25 68 19.8 73 73 S 10 17 29.93 1014 5 8.0467 0 0
11:35 am 11:35 Cloudy 79 26.2 68 20.1 69 69 SSE 13 20 29.92 1013 7 11.26538 0 0
11:55 am 11:55 Mostly Cloudy with Haze 79 26.3 68 20.1 69 69 SSE 9 15 29.92 1013 4 6.43736 0 0
12:15 pm 12:15 Partly Cloudy 82 27.6 69 20.6 66 66 SSE 8 13 29.9 1012 7 11.26538 0 0
12:35 pm 12:35 Sunny 82 28 69 20.4 63 63 SSE 7 11 29.9 1012 7 11.26538 0 0
12:55 pm 12:55 Sunny 84 28.9 69 20.7 61 61 SSE 12 19 29.88 1012 7 11.26538 0 0
1:15 pm 13:15 Sunny 85 29.4 69 20.8 60 60 SE 10 17 29.86 1011 7 11.26538 0 0
1:35 pm 13:35 Sunny 86 29.8 70 20.9 59 59 SE 13 20 29.86 1011 10 16.0934 0 0
1:55 pm 13:55 Sunny 87 30.4 70 21 57 57 SE 14 22 29.86 1011 10 16.0934 0 0
2:15 pm 14:15 Sunny 88 30.9 69 20.8 55 55 S 12 19 29.84 1011 10 16.0934 0 0
2:35 pm 14:35 Sunny 88 30.9 72 22 59 59 SSE 15 24 29.83 1010 10 16.0934 0 0
2:55 pm 14:55 Sunny 88 31.3 71 21.9 57 57 SSE 13 20 29.82 1010 10 16.0934 0 0
3:15 pm 15:15 Sunny 89 31.6 71 21.4 55 55 SE 13 20 29.82 1010 10 16.0934 0 0
3:35 pm 15:35 Sunny 89 31.4 70 21.1 54 54 SSE 13 20 29.82 1010 10 16.0934 0 0
3:55 pm 15:55 Partly Cloudy 89 31.8 71 21.5 54 54 SSE 13 20 29.81 1010 10 16.0934 0 0
4:15 pm 16:15 Partly Cloudy 88 31.2 71 21.5 56 56 SSE 13 20 29.81 1009 10 16.0934 0 0
4:35 pm 16:35 Mostly Cloudy 88 31.1 70 21.3 56 56 SE 16 26 29.81 1009 10 16.0934 0 0
4:55 pm 16:55 Mostly Cloudy 87 30.6 71 21.4 58 58 SSE 13 20 29.81 1010 10 16.0934 0 0
5:15 pm 17:15 Partly Cloudy 89 31.8 72 22 56 56 SSE 16 26 29.8 1009 10 16.0934 0 0
5:35 pm 17:35 Partly Cloudy 88 31.3 71 21.5 56 56 SSE 12 19 29.81 1009 10 16.0934 0 0
5:55 pm 17:55 Partly Cloudy 89 31.4 71 21.7 56 56 SE 12 19 29.8 1009 10 16.0934 0 0
6:15 pm 18:15 Partly Cloudy 88 31.2 71 21.6 57 57 SSE 13 20 29.8 1009 10 16.0934 0 0
6:35 pm 18:35 Mostly Cloudy 89 31.7 71 21.6 55 55 SE 12 19 29.81 1009 10 16.0934 0 0
6:55 pm 18:55 Partly Cloudy 88 31 71 21.5 57 57 SE 14 22 29.8 1009 10 16.0934 0 0
7:15 pm 19:15 Partly Cloudy 87 30.7 71 21.6 58 58 SE 13 20 29.81 1010 10 16.0934 0 0
7:35 pm 19:35 Sunny 87 30.4 71 21.4 59 59 SE 15 24 29.82 1010 10 16.0934 0 0
7:55 pm 19:55 Sunny 86 29.8 71 21.5 61 61 SE 14 22 29.82 1010 10 16.0934 0 0
8:15 pm 20:15 Sunny 84 28.8 70 21.2 64 64 SE 14 22 29.84 1010 10 16.0934 0 0
8:35 pm 20:35 Sunny 83 28.3 71 21.5 67 67 SE 13 20 29.85 1011 10 16.0934 0 0
8:55 pm 20:55 Sunny 82 27.6 71 21.5 69 69 SE 13 20 29.87 1011 10 16.0934 0 0
9:15 pm 21:15 Clear 81 27.2 71 21.4 71 71 SE 12 19 29.87 1012 10 16.0934 0 0
9:35 pm 21:35 Clear 80 26.5 72 22 76 76 SE 10 17 29.88 1012 10 16.0934 0 0
9:55 pm 21:55 Clear 79 26 72 22.3 80 80 SE 10 17 29.88 1012 10 16.0934 0 0
10:15 pm 22:15 Clear 78 25.8 72 22.1 80 80 SE 12 19 29.88 1012 10 16.0934 0 0
10:35 pm 22:35 Clear 78 25.7 72 22 80 80 SE 14 22 29.88 1012 10 16.0934 0 0
10:55 pm 22:55 Clear 78 25.5 71 21.7 80 80 SE 14 22 29.88 1012 10 16.0934 0 0
11:15 pm 23:15 Clear 77 25.1 71 21.6 81 81 SE 12 19 29.87 1011 10 16.0934 0 0
11:35 pm 23:35 Clear 76 24.7 71 21.5 82 82 SE 10 17 29.88 1012 10 16.0934 0 0
11:55 pm 23:55 Clear 77 24.8 70 21.2 80 80 SE 8 13 29.89 1012 10 16.0934 0 0

Powered by AerisWeather